Regional Weather Roundup
Issued by NWS Jackson, KY

Home | Current Version | Previous Version | Graphics & Text | Print | Product List | Glossary Off
Versions: 1 2 3 4 5 6 7 8 9 10 11 12 13 14 15 16 17 18 19 20 21 22 23 24 25 26 27 28 29 30 31 32 33 34 35 36 37 38 39 40 41 42 43 44 45 46 47 48

000
ASUS43 KJKL 261410
RWRJKL

EAST KENTUCKY HOURLY WEATHER ROUNDUP
NATIONAL WEATHER SERVICE JACKSON KY
1000 AM EDT SUN APR 26 2015

NOTE: "FAIR" INDICATES FEW OR NO CLOUDS BELOW 12,000 FEET WITH
NO SIGNIFICANT WEATHER AND/OR OBSTRUCTIONS TO VISIBILITY.

* THESE REPORTS ARE NOT UNDER NWS QUALITY CONTROL AND MAY NOT
  REPORT WEATHER SUCH AS PRECIPITATION AND FOG.

KYZ079-080-083-085-087-088-110-112-115-119-120-261500
...EASTERN KENTUCKY...

CITY           SKY/WX    TMP DP  RH WIND       PRES   REMARKS
JACKSON        CLOUDY    46  42  86 CALM      29.75R
LONDON         CLOUDY    47  42  83 N9        29.74R
SOMERSET*      CLOUDY    45  45 100 N7        29.77R
MONTICELLO*    CLOUDY    49  47  93 NE5       29.79R
MIDDLESBORO*   CLOUDY    53  51  94 NE7       29.71R
HARLAN APT*    CLOUDY    50  46  87 NW7       29.71R
HAZARD APT*    FOG       45  45 100 N5        29.74  VSB 1
BLACK MTN*       N/A     43  43 100 N6          N/A
PIKEVILLE APT* CLOUDY    43  41  93 N3        29.74R FOG
BIG SANDY*     CLOUDY    44  42  95 N5        29.75R
MOREHEAD APT*  CLOUDY    46  39  76 VRB7      29.79R
$$

KYZ035-036-041-042-044-050-067-078-099-261500
...CENTRAL KENTUCKY...

CITY           SKY/WX    TMP DP  RH WIND       PRES   REMARKS
MT STERLING*   CLOUDY    45  37  76 NE8       29.80R
FLEMING/MASON* PTSUNNY   43  36  75 N7        29.80R
DANVILLE*      CLOUDY    45  41  87 NE7       29.79R
RICHMOND*      CLOUDY    46  39  76 NE9G16    29.77R
LEXINGTON      CLOUDY    45  36  70 NE10      29.79R
FRANKFORT      CLOUDY    45  35  68 NE7       29.80R
$$

KYZ091>093-OHZ055-061-077-WVZ005-015-034-035-042-261500
...SOUTHERN OHIO/WEST VIRGINIA...

CITY           SKY/WX    TMP DP  RH WIND       PRES   REMARKS
COVINGTON      MOSUNNY   48  35  60 N12       29.83R
COLUMBUS       MOSUNNY   48  34  58 N13       29.80R
DAYTON         MOSUNNY   47  34  60 NE18      29.85R
WILMINGTON     PTSUNNY   45  35  68 N15       29.81R
HUNTINGTON     PTSUNNY   46  39  76 N5        29.75R
CHARLESTON     CLOUDY    46  40  79 CALM      29.74R
PINEVILLE*     CLOUDY    48  47  97 MISG      29.74R
BECKLEY        FOG       44  42  93 N6        29.68R VSB 1/4
BLUEFIELD      CLOUDY    46  42  86 CALM      29.69R FOG
$$

VAZ002-007-008-TNZ017-027-036-066-071-261500
...SOUTHWEST VIRGINIA/EAST TENNESSEE...

CITY           SKY/WX    TMP DP  RH WIND       PRES   REMARKS
WISE*          FOG       46  46 100 N10       29.70R VSB<1/4
JONESVILLE*    CLOUDY    54  50  87 N5        29.70R
ABINGDON*      CLOUDY    54  52  93 N12       29.66R
BRISTOL        CLOUDY    62  55  77 W12       29.64S
KNOXVILLE      PTSUNNY   64  58  80 SW10      29.67R
OAK RIDGE      PTSUNNY   64  58  80 VRB3      29.69S
CROSSVILLE     CLOUDY    58  54  86 NW8       29.72R FOG
NASHVILLE      CLOUDY    54  50  87 N12       29.78R
$$

...KEY TO REMARKS...
VSB - VISIBILITY IN MILES
WCI - WIND CHILL INDEX
HX  - HEAT INDEX

$$


USA.gov is the U.S. government's official web portal to all federal, state and local government web resources and services.